Home   Weather   Glasgow   Past weeks
Flag for United Kingdom

Past Weather in Glasgow, Scotland, United Kingdom — Yesterday and Last 2 Weeks

Now
63 °F

Mild.


Feels Like: 63 °F
Forecast: 58 / 40 °F
Wind: 16 mph from West

Location: Glasgow Airport

Current Time: May 21, 2019 at 4:28:07 pm

Latest Report: May 21, 2019 at 3:50 pm


Visibility: N/A

Pressure: 30.07 "Hg

Humidity: 45%

Dew Point: 41 °F

Location of GlasgowLocation

Past Weather in Glasgow — Graph

°F

Glasgow Temperature Yesterday

Maximum temperature yesterday: 61 °F (at 4:20 pm)
Minimum temperature yesterday: 45 °F (at 2:50 am)
Average temperature yesterday: 54 °F

High & Low Weather Summary for the Past Weeks

 TemperatureHumidityPressure
High75 °F (May 15, 2:50 pm)100% (May 10, 11:20 pm)30.66 "Hg (May 10, 11:20 pm)
Low32 °F (May 11, 2:50 am)29% (May 12, 5:20 pm)29.45 "Hg (May 8, 12:50 pm)
Average51 °F73%30.06 "Hg
* Reported May 6 3:20 pm — May 21 3:20 pm, Glasgow. Weather by CustomWeather, © 2019

Note: Actual official high and low records may vary slightly from our data, if they occured in-between our weather recording intervals... More about our weather records

Advertising

Glasgow Weather History for the Previous 24 Hours

Scroll right to see more
 ConditionsComfort  
Time TempWeatherWind HumidityBarometerVisibility
3:20 pm
Tue, May 21
63 °FMild.14 mph49%30.07 "HgN/A
2:50 pm59 °FRefreshingly cool.8 mph51%30.07 "HgN/A
2:20 pm59 °FPartly sunny.9 mph48%30.07 "HgN/A
1:50 pm59 °FScattered clouds.9 mph51%30.07 "HgN/A
12:50 pm61 °FPassing clouds.8 mph55%30.07 "HgN/A
12:20 pm59 °FScattered clouds.8 mph55%30.07 "HgN/A
11:50 am59 °FScattered clouds.9 mph59%30.07 "HgN/A
11:20 am57 °FScattered clouds.13 mph59%30.07 "HgN/A
10:50 am57 °FPartly sunny.10 mph55%30.07 "HgN/A
10:20 am59 °FPartly sunny.9 mph55%30.07 "HgN/A
9:50 am57 °FScattered clouds.12 mph59%30.07 "HgN/A
9:20 am57 °FRefreshingly cool.9 mph59%30.07 "HgN/A
8:50 am55 °FCool.8 mph67%30.07 "HgN/A
8:20 am54 °FCool.7 mph72%30.07 "HgN/A
7:50 am52 °FCool.9 mph77%30.07 "HgN/A
7:20 am50 °FCool.6 mph82%30.07 "HgN/A
6:50 am48 °FCool.3 mph87%30.04 "HgN/A
6:20 am45 °FQuite cool.1 mph93%30.04 "HgN/A
5:50 am43 °FQuite cool.7 mph93%30.04 "HgN/A
5:20 am46 °FPartly sunny.8 mph87%30.04 "HgN/A
4:50 am46 °FPassing clouds.8 mph93%30.04 "HgN/A
4:20 am48 °FMostly cloudy.9 mph87%30.04 "HgN/A
3:50 am46 °FPartly cloudy.7 mph93%30.04 "HgN/A
3:20 am46 °FPassing clouds.8 mph93%30.04 "HgN/A
2:50 am48 °FMostly cloudy.8 mph87%30.04 "HgN/A
2:20 am46 °FPassing clouds.6 mph93%30.04 "HgN/A
1:50 am48 °FPassing clouds.6 mph87%30.01 "HgN/A
1:20 am48 °FPassing clouds.5 mph87%30.01 "HgN/A
12:50 am50 °FPassing clouds.6 mph82%30.01 "HgN/A
12:20 am48 °FPassing clouds.6 mph87%30.01 "HgN/A
11:50 pm
Mon, May 20
48 °FPassing clouds.7 mph87%30.01 "HgN/A
11:20 pm50 °FCool.6 mph82%30.01 "HgN/A
10:50 pm52 °FCool.7 mph77%30.01 "HgN/A
10:20 pm52 °FOvercast.8 mph77%30.01 "HgN/A
9:50 pm54 °FPassing clouds.8 mph77%30.01 "HgN/A
9:20 pm54 °FLight rain. Partly sunny.7 mph77%29.98 "HgN/A
8:50 pm55 °FLight rain. Partly sunny.8 mph72%29.98 "HgN/A
8:20 pm55 °FPartly sunny.9 mph72%29.98 "HgN/A
7:50 pm55 °FOvercast.10 mph72%29.98 "HgN/A
7:20 pm57 °FScattered clouds.8 mph67%29.98 "HgN/A
6:50 pm57 °FPassing clouds.9 mph67%29.95 "HgN/A
6:20 pm57 °FCool.12 mph67%29.95 "HgN/A
5:50 pm59 °FScattered clouds.10 mph63%29.95 "HgN/A
5:20 pm59 °FPartly sunny.10 mph63%29.95 "HgN/A
4:50 pm61 °FScattered clouds.9 mph59%29.95 "HgN/A
4:20 pm61 °FPartly sunny.10 mph59%29.95 "HgN/A
Weather by CustomWeather, © 2019

See weather overview